Location: ?
(34.7922°N, 135.5746°E)
Time: 01:36:56
(UTC+00:00)

Daily predictions for brighter satellites

Satellite Brightness Start Highest point End
(mag) Time Altitude Azimuth Time Altitude Azimuth Time Altitude Azimuth
YAOGAN 6 2.5 08:07:54 10° SSE 08:11:32 75° ENE 08:15:10 10° N
CRYOSAT 2 4.4 08:13:14 10° N 08:18:09 88° E 08:23:03 10° S
Cosmos 2369 Rocket 3.7 08:16:38 10° NNE 08:19:41 15° NE 08:22:42 10° E
Cosmos 44 4.0 08:20:30 10° NNW 08:25:29 38° NE 08:30:31 10° ESE
USA 281 4.5 08:22:31 10° E 08:26:36 18° NE 08:30:41 10° NNE
Meteor 1-25 Rocket 4.5 08:21:15 10° N 08:26:41 47° ENE 08:32:09 10° SSE
Cosmos 1943 Rocket 3.0 08:25:55 10° N 08:30:42 28° ENE 08:35:28 10° ESE
USA 81 4.2 08:27:16 10° N 08:32:24 51° E 08:37:31 10° SSE
X-37B 1.4 08:29:35 10° W 08:32:37 44° NNW 08:35:17 13° NE
H-2A R/B 3.9 08:33:58 10° NE 08:33:58 10° NE 08:34:11 10° NE
Cosmos 1933 3.6 08:31:35 10° SSW 08:35:36 74° W 08:39:39 10° N
Cosmos 1470 Rocket 4.3 08:32:23 10° NNE 08:36:12 30° ENE 08:39:59 10° SE
Cosmos 1515 Rocket 4.0 08:33:38 10° SSE 08:37:40 38° E 08:41:46 10° NNE
FengYun 1-2 T 4.2 08:32:19 10° SSE 08:37:46 62° ENE 08:43:12 10° N
Sich 1 3.6 08:33:33 10° NNW 08:37:52 62° W 08:42:06 10° S
Cosmos 1782 3.0 08:34:09 10° SSE 08:37:56 47° E 08:41:45 10° NNE
Cosmos 1151 Rocket 3.0 08:35:39 10° S 08:39:57 88° WNW 08:44:14 10° N
NOAA 12 4.2 08:35:26 10° SSE 08:40:45 84° WSW 08:46:07 10° NNW
Cosmos 1602 4.4 08:38:47 10° NNE 08:42:22 33° E 08:45:53 10° SE
CZ-2D R/B 4.4 08:39:44 10° ESE 08:42:43 22° ENE 08:45:43 10° NNE
COSMO-SKYMED 1 2.7 08:42:31 10° NNE 08:46:46 53° E 08:51:00 10° S
BREEZE-M R/B 3.1 08:44:31 10° NW 08:47:17 30° NNE 08:47:50 26° ENE
Cosmos 2218 Rocket 3.9 08:41:45 10° N 08:47:51 67° E 08:53:58 10° SSE
Cosmos 1689 Rocket 2.9 08:46:43 21° ENE 08:47:54 29° E 08:50:30 10° SSE
Cosmos 2366 rocket 3.9 08:46:04 10° N 08:52:12 69° E 08:58:18 10° SSE
SL-16 R/B 3.5 08:49:10 10° SW 08:54:25 38° WNW 08:59:41 10° N
CENTAUR R/B 3.5 08:50:33 10° SSE 08:54:36 21° ESE 08:56:07 19° E
Cosmos 2297 3.7 08:49:09 10° NNW 08:54:52 83° ENE 09:00:35 10° SSE
Cosmos 489 Rocket 4.4 08:50:21 10° SSW 08:56:32 89° ESE 09:02:47 10° NNE
SAR-Lupe-4 3.5 08:53:33 10° NNE 08:57:07 64° ESE 09:00:39 10° S
Lacrosse 5 rocket 3.7 08:58:48 10° WNW 09:00:13 12° NW 09:01:38 10° NNW
Cosmos 1328 Rocket 4.2 08:56:14 10° SSW 09:00:27 57° W 09:04:44 10° N
Meteor 1-4 Rocket 2.8 08:57:42 10° SSW 09:01:20 67° W 09:04:54 10° N
MOS 1 Rocket 4.1 08:57:20 10° NNE 09:02:24 38° E 09:07:21 10° SSE
Cosmos 1538 Rocket 4.1 08:59:07 10° SSW 09:04:28 84° WNW 09:09:52 10° NNE
SWAS 4.4 09:00:22 10° SSW 09:04:35 66° ESE 09:07:14 22° NNE
Okean-O 3.3 09:02:10 10° SE 09:06:04 32° ENE 09:09:59 10° N
Cosmos 1933 Rocket 3.8 09:02:15 10° N 09:06:33 45° E 09:10:48 10° SSE
CZ-4B R/B 3.0 09:05:15 10° N 09:08:05 32° WNW 09:10:56 10° SW
Okean O Rocket 3.1 09:04:42 10° SSW 09:08:45 39° W 09:12:51 10° NNW
BREEZE-M DEB (TANK) 2.0 09:07:23 10° WSW 09:12:02 84° NW 09:12:56 43° NE
SAR-Lupe-1 4.1 09:10:52 12° N 09:14:07 76° WNW 09:17:42 10° SSW
IUS-14 SRM-1 4.3 09:11:27 10° WSW 09:14:34 21° S 09:15:44 17° SSE
SL-24 R/B 3.7 09:10:53 10° N 09:14:40 81° WNW 09:18:18 10° SSW
Meteor 2-6 Rocket 4.2 09:11:08 10° S 09:16:42 61° E 09:22:04 10° NNE
NOSS 3-2 (A) 3.2 09:15:14 10° SSW 09:20:36 63° ESE 09:23:32 29° NE
CZ-4 R/B 4.3 09:18:09 10° SSE 09:22:16 73° ENE 09:26:24 10° N
CREW DRAGON DEMO-1 DEB 3.4 09:19:54 10° WNW 09:22:48 52° SW 09:23:26 42° S
SL-24 DEB 4.4 09:22:18 10° N 09:27:02 74° W 09:31:41 10° SSW
ERS-2 4.4 09:27:37 10° NNW 09:30:35 24° WNW 09:33:33 10° SW
PSLV R/B 4.2 09:28:26 16° N 09:31:31 63° WNW 09:35:31 10° SSW
Nadezhda 3 Rocket 3.9 09:29:12 10° S 09:35:32 84° E 09:41:56 10° N
USA 215 3.9 09:31:14 19° NNE 09:35:49 49° NW 09:42:03 10° WSW
Lacrosse 4 Rocket 3.3 09:33:00 10° S 09:34:13 17° SSE 09:34:13 17° SSE
CZ-4 R/B 3.2 09:32:49 10° SSE 09:40:31 11° N 09:40:41 10° N
USA 238 DEB 3.5 09:31:43 10° SSW 09:38:11 77° ESE 09:41:10 36° NE
USA 238 3.5 09:31:48 10° SSW 09:38:18 76° ESE 09:41:13 36° NE
Cosmos 1939 Rocket 4.1 09:35:48 10° S 09:39:25 40° W 09:43:06 10° NNW
NOAA 15 4.5 09:34:45 10° SSE 09:40:00 69° ENE 09:45:15 10° N
ATLAS CENTAUR R/B 3.9 09:23:44 10° NW 09:41:26 78° NE 09:45:28 29° SE
DMSP B5D1-3 4.4 09:40:10 42° NNE 09:41:56 74° ESE 09:47:02 10° S
CZ-2C R/B 2.8 09:37:16 10° SSE 09:42:25 83° ENE 09:47:20 10° N
Cosmos 1461 4.0 09:44:52 10° S 09:47:46 37° SSE 09:47:46 37° SSE
Cosmos 1603 4.4 09:44:07 10° SW 09:49:35 52° WNW 09:53:14 21° N
Cosmos 1821 Rocket 3.9 09:46:40 10° N 09:52:58 89° E 09:59:19 10° S
Cosmos 1943 3.8 09:50:01 10° SW 09:55:30 54° WNW 09:58:38 25° N
Meteor 1-5 Rocket 4.2 09:51:48 10° N 09:57:42 87° WSW 10:03:23 10° S
Meteor 1-27 Rocket 3.9 09:53:08 10° S 09:57:26 53° SSE 09:57:26 53° SSE
Meteor 1-10 Rocket 4.5 09:55:14 10° SSW 10:00:52 66° W 10:04:18 24° N
Cosmos 2369 Rocket 2.3 09:58:37 10° NNW 10:04:17 74° WSW 10:07:29 27° S
USA 267 4.0 10:06:01 36° NNE 10:06:01 36° NNE 10:10:48 10° NNW
Cosmos 1812 4.3 10:03:15 10° SW 10:06:43 32° W 10:06:47 32° WNW
USA 281 3.2 10:03:45 10° SSE 10:10:18 82° WSW 10:16:54 10° NNW
H-2A R/B 3.6 10:06:10 10° S 10:14:37 25° NNW 10:16:44 10° NNW
Cosmos 1943 Rocket 3.8 10:09:27 10° NW 10:14:22 33° WSW 10:19:19 10° SSW
NOSS 3-2 (C) 4.4 10:38:57 10° SW 10:42:47 40° W 10:42:47 40° W
CENTAUR R/B 3.3 10:39:00 10° SW 10:43:21 45° W 10:43:21 45° W
